Wind_Speed
7 6 7 7 7 8 6 6 6 5 5 5 6 3 3 1 3 4 6 1 5 8 8 10 12 13 14 15 15 14 13 12 12 10 9 8 7 6 5 4 3 2 2 2 3 2 2 4 5
10 5 4 5 7 6 11 8 8 12 4 8 2 1 1 1 3 4 5 5 4 6 8 9 11 12 14 14 14 14 13 13 12 11 10 10 9 9 9 9 6 4 1 3 4 3 4 6 6
9 8 2 5 2 7 14 13 22 14 12 5 5 2 4 2 4 2 4 3 4 6 7 8 11 14 14 13 13 13 12 12 11 12 11 12 13 15 16 14 12 10 9 8 7 5 6 7 7
5 2 5 4 4 5 7 8 12 18 9 10 7 5 6 4 4 0 3 5 4 6 7 8 11 13 14 13 11 12 11 11 12 12 13 16 17 18 18 16 15 16 17 16 15 10 9 12 11
7 5 3 3 5 2 2 6 6 5 3 15 12 10 10 5 3 1 2 4 3 7 8 8 11 13 14 13 10 11 12 12 13 13 15 17 18 18 19 18 18 18 17 17 13 17 22 15 15
10 7 3 8 9 6 8 5 10 9 7 10 8 11 8 7 4 2 3 5 5 7 9 9 11 13 14 12 11 11 11 13 13 13 15 16 15 17 17 17 20 19 18 16 17 18 20 19 17
8 7 4 7 7 4 6 10 6 5 9 14 11 11 9 6 5 2 2 5 6 8 9 11 11 12 13 11 11 10 12 12 13 12 13 13 13 14 15 16 19 18 18 17 17 17 16 16 16
12 10 6 7 3 5 7 4 2 4 12 9 14 13 10 7 5 1 4 6 7 8 10 11 12 12 13 12 11 10 11 12 12 11 11 12 12 12 13 15 18 18 18 17 14 15 14 13 11
13 15 10 7 1 5 6 8 2 5 2 15 11 13 9 5 3 1 2 5 7 7 10 11 13 12 13 13 12 11 12 13 11 10 10 10 11 11 13 16 14 15 17 17 18 11 12 11 12
14 13 12 10 1 7 7 6 3 3 4 6 9 9 6 2 4 1 2 4 7 8 9 11 13 13 14 14 14 13 13 12 10 9 8 8 9 9 11 12 16 14 16 15 14 15 14 14 13
17 14 14 11 1 6 12 18 6 2 1 11 11 9 5 1 3 1 1 5 6 9 6 9 12 12 14 13 14 13 13 10 9 8 6 8 7 7 8 8 12 13 12 12 10 12 13 16 17
20 17 16 13 18 9 9 22 5 8 10 7 9 9 4 2 1 2 2 5 6 7 6 8 12 13 13 13 12 15 12 9 6 4 6 5 7 7 6 7 11 12 13 17 12 13 14 17 18
21 19 17 13 11 10 10 15 16 7 6 5 5 6 5 2 3 3 3 5 5 7 7 8 13 16 14 13 12 10 11 8 6 6 6 4 8 6 6 5 6 10 10 13 13 15 16 17 19
17 23 19 15 14 15 14 13 9 9 7 7 2 3 5 4 5 5 5 4 4 6 8 10 10 14 14 14 9 8 10 5 7 4 6 3 11 6 4 4 5 6 9 12 13 13 15 16 15
16 15 21 15 14 13 13 13 11 8 9 11 7 3 6 5 5 6 7 5 5 7 9 11 11 14 17 14 14 8 8 5 4 5 6 7 6 6 1 6 7 6 7 10 13 12 12 13 10
21 15 10 13 13 11 11 15 6 6 4 12 7 7 8 7 8 6 5 5 4 8 8 11 13 14 15 13 8 7 4 3 6 6 8 7 6 7 4 5 8 6 8 8 11 11 11 10 13
21 16 12 12 13 15 13 15 9 14 13 13 9 6 7 9 5 6 8 7 5 9 11 13 13 15 13 12 10 9 6 4 6 8 10 9 9 10 3 5 7 8 9 8 8 9 10 10 11
20 22 20 15 15 16 14 19 17 18 15 17 11 9 11 10 7 7 9 8 7 9 11 14 17 15 12 10 8 9 8 6 6 5 8 9 7 8 9 7 8 6 9 11 8 8 8 9 10
23 28 30 22 4 10 14 16 12 16 15 21 16 13 11 9 9 12 11 9 9 10 12 14 14 13 11 10 9 9 10 8 7 8 9 8 11 12 10 6 8 6 9 10 8 10 8 7 9
27 26 26 27 15 9 19 24 21 21 17 29 30 16 10 6 7 6 9 10 11 12 15 17 18 15 13 13 11 11 11 11 8 9 10 10 12 8 12 10 8 7 9 10 10 10 10 8 9
31 28 23 27 24 26 25 32 24 21 25 19 25 14 15 8 8 9 9 11 12 13 16 18 20 17 15 13 14 13 13 11 8 8 10 11 12 13 11 11 10 8 9 10 9 10 9 10 8
33 31 27 26 34 32 26 22 29 29 26 26 27 24 15 13 6 5 8 11 11 15 17 20 23 19 16 14 15 14 13 12 10 10 12 13 13 13 11 10 10 10 9 9 7 7 7 9 7
32 35 34 31 35 37 34 30 33 31 30 21 29 38 19 18 12 7 8 9 15 15 16 20 21 21 16 17 16 15 14 14 12 12 14 14 13 13 12 10 8 7 8 7 7 6 7 7 9
39 36 38 40 40 42 36 40 32 28 25 21 20 16 15 16 18 14 8 7 10 16 16 18 19 22 21 17 17 17 17 16 14 13 15 15 13 12 11 9 7 6 6 5 7 7 7 7 9
42 43 42 43 43 40 34 40 33 32 21 22 14 13 16 24 12 18 13 8 6 8 16 16 18 19 23 21 18 18 18 17 16 14 13 12 11 9 8 7 8 8 8 7 7 6 6 8 8
45 43 46 44 40 38 36 42 30 26 30 23 19 10 20 24 25 20 19 13 13 11 13 18 17 19 22 23 21 20 19 19 18 17 16 14 11 10 9 7 8 9 8 6 7 6 6 7 7
41 48 41 46 44 44 39 35 29 20 24 29 27 25 22 22 25 29 29 18 16 13 11 13 18 20 22 25 25 23 22 21 20 19 18 16 14 12 10 8 7 8 6 5 4 4 4 5 5
45 39 44 45 48 50 47 39 25 0 9 20 24 28 27 34 30 33 33 27 22 18 17 13 13 19 25 25 26 25 25 25 24 21 19 18 16 13 12 11 7 7 6 4 2 2 2 2 3
42 51 50 49 51 49 47 43 33 17 7 18 16 21 22 25 35 38 43 28 29 27 23 17 13 13 21 24 26 26 24 25 26 23 21 19 17 15 13 13 12 9 7 6 3 1 1 1 2
48 46 51 54 51 54 51 44 29 23 10 16 18 25 23 25 30 38 21 43 34 25 23 21 16 13 16 27 28 29 28 28 25 25 24 22 21 20 18 17 15 14 11 8 5 3 3 3 4
Wind_Direction
148 167 183 180 200 211 225 257 238 164 282 195 232 40 19 51 0 344 16 340 81 58 94 102 110 116 115 114 113 112 111 113 113 116 108 91 76 65 51 35 16 330 278 242 220 200 139 83 80
131 133 206 210 222 225 241 273 244 220 113 165 153 264 69 318 316 324 20 23 59 74 96 109 111 121 114 116 113 106 103 105 109 104 97 86 80 68 56 39 20 3 282 184 186 180 146 110 84
138 103 94 191 262 250 227 239 230 202 228 175 187 219 251 281 268 302 33 26 83 88 94 116 116 126 120 111 109 106 100 99 100 94 87 83 68 62 51 48 50 64 76 102 122 141 152 139 104
144 130 141 100 53 316 267 288 220 237 207 196 162 208 267 251 248 75 28 52 80 98 101 112 118 128 118 106 105 106 101 100 96 91 82 72 66 63 55 57 69 76 84 94 92 72 154 129 110
162 103 129 52 13 278 319 289 180 213 34 172 160 203 247 219 241 122 48 79 100 108 111 114 125 127 122 113 107 101 100 99 95 90 78 71 67 67 62 71 76 79 84 98 87 86 110 111 106
175 170 164 29 314 322 322 227 203 285 251 245 195 201 229 230 239 133 101 113 113 115 122 122 131 126 122 125 118 108 106 98 97 90 77 74 72 74 74 74 84 87 87 88 94 96 106 110 114
196 185 211 287 267 355 358 336 274 342 259 263 214 198 214 227 242 113 134 121 119 130 128 131 134 129 125 123 109 111 109 104 99 86 79 80 82 79 77 72 77 85 89 88 90 92 93 99 102
213 212 212 312 248 216 259 314 44 0 318 283 182 206 210 228 239 145 153 144 138 143 132 133 135 133 125 115 113 117 117 107 101 94 87 84 80 78 75 71 69 76 85 92 99 105 103 99 94
218 222 220 230 215 277 257 130 107 280 26 133 156 189 204 225 256 151 122 176 128 151 137 135 142 141 129 126 122 125 122 114 103 94 91 91 85 74 69 70 68 67 74 80 83 91 109 113 110
225 228 229 237 35 311 284 119 142 243 140 123 147 179 197 245 326 88 109 202 157 160 152 140 149 148 137 134 135 130 125 120 110 97 90 81 91 82 73 79 76 74 75 77 74 83 95 97 104
219 225 221 212 132 262 236 223 148 186 245 163 161 194 199 212 334 119 126 231 178 165 157 140 152 152 138 141 137 128 132 122 109 127 111 103 84 83 74 81 54 83 84 88 73 92 81 93 98
221 224 235 232 284 281 303 151 48 325 339 138 179 192 183 207 216 210 180 224 211 154 154 148 154 147 135 144 145 141 131 123 149 109 93 106 107 81 80 76 82 83 83 98 93 87 95 93 94
218 224 235 239 264 243 261 294 338 102 48 158 154 200 192 193 184 167 196 232 219 162 153 159 159 145 138 143 143 143 137 153 119 124 86 92 111 88 68 63 79 90 85 96 104 98 98 89 87
215 219 222 230 239 257 298 300 312 265 238 211 226 184 225 211 185 171 187 216 216 169 167 165 164 149 141 147 154 149 131 146 133 127 91 106 98 70 86 76 78 103 99 96 91 94 94 90 83
225 230 226 215 241 228 248 257 263 245 227 216 200 180 235 225 173 186 173 192 198 192 165 163 170 161 156 155 162 152 124 157 122 128 129 109 110 91 109 95 53 91 83 83 92 93 91 90 89
223 220 209 219 225 234 242 266 263 249 231 212 211 201 226 227 191 174 175 192 202 187 181 167 167 167 156 149 147 135 129 92 108 124 116 110 155 121 132 98 77 93 100 87 86 89 97 100 80
228 224 207 220 229 228 225 258 239 212 270 239 247 240 225 221 193 167 180 185 184 195 182 167 164 168 154 152 147 142 112 89 105 119 113 118 128 133 144 126 93 79 93 101 95 96 92 94 91
223 218 216 227 242 219 223 232 236 252 272 195 234 202 214 190 177 177 191 190 180 204 194 167 166 173 169 155 143 129 119 115 120 121 109 124 138 123 134 128 113 125 93 93 91 95 101 99 99
223 219 210 197 198 260 269 237 285 261 248 208 218 176 204 177 179 196 182 181 194 201 198 173 174 170 174 161 156 146 129 135 154 135 128 136 137 131 125 119 114 119 95 85 85 89 90 100 111
220 226 224 210 179 245 261 271 261 266 264 268 180 147 177 186 178 180 186 185 192 206 194 181 176 179 183 176 171 161 146 144 147 146 130 138 142 128 126 119 112 115 98 95 95 93 102 114 117
221 221 222 215 181 202 232 260 270 262 263 269 212 197 172 189 194 175 193 179 197 209 195 184 182 187 182 176 177 176 153 147 159 140 140 135 136 129 121 122 117 102 92 91 95 98 96 91 97
222 220 214 222 210 199 208 247 254 256 264 250 238 222 194 168 196 164 190 174 205 213 196 190 189 187 187 182 185 181 166 151 154 143 136 137 136 123 121 119 118 107 104 95 91 91 85 86 78
222 220 217 212 227 225 215 221 237 246 249 260 267 225 211 183 165 186 183 190 201 215 206 194 194 194 190 185 187 184 173 155 153 150 138 140 132 128 125 114 109 105 98 97 94 88 83 88 97
224 223 223 220 218 226 226 227 228 238 248 253 267 241 205 226 172 189 179 171 197 207 209 204 196 197 202 195 188 190 179 166 157 154 146 139 138 133 126 120 118 108 103 98 93 96 101 101 100
229 225 225 226 226 237 228 237 246 252 253 255 258 263 277 192 213 183 179 159 142 205 207 215 208 200 204 207 199 196 194 183 171 164 154 155 156 150 139 126 125 124 114 94 88 95 97 92 95
230 230 229 229 229 234 232 236 245 250 254 250 240 261 272 246 230 225 186 190 166 181 210 206 214 208 204 207 207 202 203 201 192 182 177 176 172 169 169 146 138 136 124 103 88 80 89 91 100
234 231 231 232 228 235 231 231 232 244 236 247 246 246 251 261 222 222 207 187 189 177 194 209 208 216 210 203 207 205 202 208 212 203 194 191 194 188 178 168 159 155 142 125 105 89 92 103 114
223 229 229 227 228 232 231 226 222 233 291 273 273 269 260 247 241 233 234 200 196 195 199 199 202 209 217 211 202 208 206 207 211 213 213 206 203 197 190 186 189 182 176 158 130 94 81 93 111
223 220 229 231 230 227 232 227 216 185 282 252 274 286 281 275 269 256 218 217 212 199 194 198 211 209 213 218 212 212 214 210 215 215 216 219 218 215 204 202 204 208 214 210 214 235 308 216 221
221 222 220 226 227 233 234 225 186 186 236 232 233 277 269 263 261 274 254 217 214 212 203 190 192 221 213 213 217 211 214 212 211 215 217 218 218 217 222 213 215 218 221 231 243 254 262 267 237
Height
5892 5893 5894 5894 5897 5896 5897 5898 5895 5899 5896 5897 5898 5901 5902 5902 5904 5906 5904 5904 5905 5907 5906 5906 5906 5906 5906 5907 5908 5909 5910 5911 5912 5913 5914 5914 5914 5914 5913 5912 5911 5910 5910 5910 5910 5911 5912 5913 5913
5893 5894 5894 5895 5896 5896 5898 5892 5891 5897 5898 5899 5902 5901 5901 5902 5904 5905 5906 5906 5907 5908 5908 5908 5908 5908 5908 5909 5910 5911 5912 5913 5914 5916 5916 5916 5916 5915 5914 5912 5910 5909 5908 5908 5909 5910 5911 5912 5913
5893 5893 5893 5894 5895 5895 5895 5891 5891 5894 5898 5899 5901 5902 5902 5904 5904 5905 5907 5908 5909 5908 5909 5910 5910 5910 5911 5911 5912 5913 5914 5916 5917 5919 5918 5918 5917 5915 5914 5912 5910 5908 5907 5908 5909 5910 5911 5913 5914
5893 5893 5895 5895 5895 5895 5892 5891 5897 5886 5895 5898 5901 5903 5903 5904 5905 5906 5907 5908 5910 5909 5910 5911 5912 5912 5913 5913 5914 5915 5917 5918 5919 5920 5919 5919 5918 5917 5917 5915 5912 5911 5909 5909 5910 5910 5910 5914 5915
5892 5894 5895 5894 5894 5893 5890 5892 5899 5892 5896 5892 5900 5904 5903 5905 5906 5907 5908 5908 5909 5910 5911 5912 5913 5914 5914 5915 5917 5918 5919 5920 5922 5922 5921 5921 5920 5920 5919 5917 5915 5913 5912 5912 5912 5911 5913 5915 5917
5893 5894 5895 5894 5895 5893 5891 5880 5895 5896 5900 5897 5902 5904 5904 5907 5906 5906 5910 5909 5910 5910 5912 5914 5915 5916 5916 5916 5918 5921 5921 5922 5924 5923 5924 5923 5923 5923 5922 5920 5917 5916 5917 5917 5918 5918 5917 5918 5919
5893 5894 5895 5894 5893 5895 5894 5891 5895 5897 5897 5897 5903 5904 5905 5906 5905 5908 5909 5910 5910 5911 5912 5914 5916 5917 5917 5918 5920 5922 5923 5924 5926 5926 5926 5926 5926 5925 5924 5922 5922 5923 5922 5922 5922 5924 5925 5925 5925
5892 5894 5894 5893 5893 5894 5894 5894 5896 5897 5898 5897 5902 5903 5904 5905 5906 5908 5911 5911 5911 5912 5913 5914 5916 5918 5918 5920 5922 5924 5925 5926 5927 5928 5928 5929 5928 5927 5926 5927 5928 5926 5926 5925 5925 5925 5926 5928 5930
5890 5893 5893 5892 5893 5892 5888 5891 5897 5901 5898 5899 5901 5903 5905 5906 5905 5908 5911 5911 5911 5913 5913 5915 5917 5918 5919 5921 5923 5925 5927 5928 5929 5929 5930 5930 5929 5929 5930 5931 5930 5929 5930 5929 5928 5928 5928 5930 5931
5889 5891 5891 5890 5892 5891 5893 5892 5897 5901 5898 5901 5902 5904 5904 5905 5905 5908 5911 5912 5913 5912 5914 5915 5918 5919 5921 5922 5923 5926 5928 5929 5931 5931 5932 5932 5931 5931 5932 5932 5932 5931 5932 5932 5931 5932 5931 5930 5933
5886 5888 5888 5890 5890 5890 5883 5886 5891 5897 5901 5898 5899 5903 5904 5904 5904 5908 5910 5911 5911 5914 5914 5917 5920 5921 5923 5926 5925 5927 5929 5930 5932 5932 5933 5934 5933 5933 5934 5935 5934 5935 5934 5935 5936 5935 5935 5933 5934
5884 5885 5886 5886 5888 5889 5887 5864 5890 5897 5897 5897 5898 5900 5902 5903 5905 5906 5908 5911 5912 5914 5915 5919 5921 5922 5925 5927 5928 5928 5930 5932 5931 5934 5935 5936 5935 5935 5936 5936 5937 5937 5937 5938 5938 5937 5937 5937 5936
5880 5883 5885 5887 5886 5887 5884 5887 5890 5893 5895 5900 5898 5899 5901 5903 5905 5907 5908 5910 5911 5915 5918 5919 5921 5922 5925 5929 5930 5932 5932 5931 5935 5935 5936 5938 5937 5937 5938 5939 5938 5938 5939 5941 5941 5939 5939 5938 5937
5878 5878 5881 5885 5886 5887 5886 5887 5889 5890 5898 5899 5900 5899 5902 5903 5904 5907 5908 5910 5912 5916 5918 5920 5922 5923 5926 5929 5931 5933 5933 5934 5938 5936 5938 5939 5937 5938 5939 5940 5942 5941 5941 5943 5943 5942 5941 5941 5942
5875 5877 5878 5882 5883 5886 5888 5890 5889 5889 5893 5896 5895 5897 5901 5903 5903 5906 5908 5910 5912 5916 5918 5920 5922 5925 5927 5930 5933 5934 5934 5937 5938 5939 5939 5940 5939 5940 5941 5942 5943 5943 5942 5943 5944 5943 5944 5944 5947
5871 5874 5877 5880 5882 5883 5886 5885 5889 5887 5888 5892 5893 5896 5900 5902 5904 5905 5907 5909 5912 5915 5918 5920 5923 5926 5929 5930 5934 5934 5936 5937 5938 5938 5940 5942 5941 5942 5943 5945 5945 5945 5944 5944 5945 5947 5947 5949 5949
5870 5874 5876 5877 5879 5880 5883 5883 5887 5887 5887 5889 5896 5898 5899 5902 5904 5906 5908 5911 5914 5915 5920 5922 5923 5928 5930 5933 5936 5935 5937 5938 5939 5939 5941 5942 5943 5944 5946 5946 5946 5947 5947 5948 5948 5948 5949 5950 5952
5866 5870 5873 5877 5877 5879 5881 5881 5886 5889 5892 5893 5894 5896 5898 5900 5901 5904 5907 5910 5913 5915 5918 5922 5926 5929 5932 5934 5935 5936 5938 5940 5941 5942 5944 5944 5945 5946 5948 5947 5949 5950 5950 5950 5951 5952 5952 5954 5955
5860 5862 5865 5870 5876 5876 5877 5880 5882 5886 5892 5888 5890 5891 5896 5897 5899 5905 5906 5910 5914 5915 5918 5921 5924 5927 5932 5933 5935 5938 5940 5943 5944 5943 5946 5947 5948 5949 5949 5949 5951 5953 5952 5952 5954 5954 5956 5957 5956
5855 5859 5865 5868 5872 5879 5877 5878 5881 5883 5888 5889 5870 5884 5894 5895 5898 5901 5905 5910 5915 5917 5918 5921 5925 5928 5933 5935 5937 5938 5942 5944 5946 5946 5947 5949 5950 5950 5952 5953 5953 5955 5955 5956 5957 5957 5958 5958 5958
5850 5854 5861 5865 5867 5869 5875 5877 5877 5880 5883 5883 5872 5887 5890 5893 5898 5899 5904 5909 5913 5918 5918 5921 5925 5929 5933 5937 5939 5941 5942 5944 5947 5948 5950 5950 5951 5952 5954 5955 5956 5957 5958 5959 5959 5960 5960 5960 5960
5845 5850 5855 5859 5860 5862 5871 5875 5876 5878 5878 5882 5885 5889 5891 5892 5898 5900 5903 5907 5912 5915 5919 5921 5923 5929 5933 5937 5940 5941 5943 5944 5947 5949 5950 5952 5953 5953 5955 5958 5959 5959 5960 5960 5961 5961 5961 5961 5961
5841 5844 5848 5852 5854 5857 5860 5866 5872 5873 5877 5882 5881 5881 5893 5894 5893 5900 5901 5905 5910 5913 5917 5920 5923 5928 5933 5936 5940 5943 5945 5946 5948 5950 5951 5953 5955 5955 5957 5958 5959 5960 5961 5961 5961 5961 5962 5962 5962
5832 5837 5841 5843 5845 5847 5859 5859 5865 5868 5875 5879 5881 5880 5890 5893 5890 5898 5899 5901 5908 5911 5916 5920 5924 5927 5932 5935 5939 5942 5945 5947 5949 5951 5952 5953 5956 5958 5959 5959 5960 5961 5962 5962 5962 5963 5964 5964 5964
5824 5828 5832 5836 5840 5846 5856 5854 5862 5865 5871 5875 5879 5881 5881 5889 5891 5892 5896 5901 5905 5908 5913 5917 5922 5926 5931 5935 5938 5941 5944 5946 5949 5951 5953 5955 5958 5959 5960 5961 5962 5962 5963 5963 5963 5964 5965 5965 5965
5815 5821 5824 5830 5837 5843 5848 5847 5860 5866 5862 5869 5873 5875 5873 5878 5882 5889 5892 5897 5901 5905 5909 5912 5918 5923 5928 5932 5936 5940 5944 5946 5948 5951 5953 5955 5958 5959 5961 5962 5963 5964 5965 5965 5965 5966 5966 5966 5967
5811 5812 5822 5822 5829 5827 5837 5845 5853 5859 5860 5864 5866 5869 5872 5876 5881 5887 5891 5889 5897 5902 5905 5908 5913 5918 5923 5928 5933 5937 5941 5945 5948 5950 5952 5954 5956 5959 5961 5963 5964 5966 5966 5966 5967 5967 5967 5968 5968
5796 5810 5806 5811 5817 5819 5829 5839 5848 5857 5859 5858 5862 5864 5870 5875 5879 5886 5890 5886 5888 5896 5901 5904 5907 5913 5917 5922 5929 5934 5938 5941 5945 5948 5951 5953 5955 5958 5960 5962 5964 5966 5967 5968 5968 5968 5968 5968 5969
5787 5793 5796 5804 5807 5810 5819 5830 5845 5848 5852 5853 5859 5863 5865 5867 5871 5871 5880 5884 5885 5885 5893 5901 5905 5909 5913 5919 5924 5930 5935 5939 5942 5946 5949 5951 5954 5956 5959 5961 5963 5965 5966 5968 5968 5969 5969 5969 5969
5771 5780 5786 5789 5800 5806 5809 5828 5845 5838 5840 5840 5850 5853 5856 5858 5860 5858 5869 5875 5880 5884 5890 5894 5899 5906 5909 5912 5917 5924 5928 5933 5939 5943 5946 5948 5951 5954 5956 5959 5962 5964 5965 5967 5967 5968 5969 5968 5969